sat.trackr.live / text

‹ back to catalog

STARLINK-3568

NORAD 51856 · 2022-022E

PAYLOAD ACTIVE UNKNOWN

§ Identity

Operator
Country
US
Launch date
2022-03-03
Launch site
AFETR
Launch vehicle
Mass (kg)
RCS (m²)

Purposes: comms

External: N2YO · Heavens-Above · Gunter

§ Orbital elements

Epoch: 2026-09-19T12:15:28.704960Z

Period
94.01 min
Inclination
53.1599°
Eccentricity
0.0001583
Mean motion
15.31730184 rev/d
Perigee alt
469.6 km
Apogee alt
471.7 km
Semi-major
6,848.8 km
B*
-2.0818e-4
RAAN
215.5390°
Arg perigee
95.4608°
Mean anomaly
264.6574°
Rev number
25,249

§ Raw data

STARLINK-35681 51856U 22022E   26262.51074890 -.00006826  00000+0 -20818-3 0  99902 51856  53.1599 215.5390 0001583  95.4608 264.6574 15.31730184252492

JSON: /api/v1/satellites/51856 · /tle

For live sub-satellite position, see the globe view (requires WebGL).

§ Visibility from observer

Set your observer location to see the next 7 days of passes ≥ 10°. The values pass through the URL so the page stays shareable.

No JS? Fill the form by hand. The geolocation button needs JavaScript.